Вернуться в каталог

NOAA 16 DEB

АктивенPO
NORAD 41710·DEBRIS·🇺🇸 United States

Запущен Sep 21, 2000 с Vandenberg Space Force Base

Loading…

Ближайшие Пролёты (ближайшие 24 часа)

TLE

СвежийSource: Space-Track

Эпоха: Sep 14, 2026, 00:00 UTC

1 41710U 00055PQ  26257.00010189  .00004949  00000-0  11332-2 0  9992
2 41710  98.9393  99.3405 0024960 179.9854 180.1347 14.55933005542088

Отслеживайте NOAA 16 DEB в реальном времени с AllMySat

Download on the App Store